Radiation Dose at Monitoring Post of Fukushima Daini Nuclear Power Station
Date,Time,MP-1(microSv/h),MP-2(microSv/h),MP-3(microSv/h),MP-4(microSv/h),MP-5(microSv/h),MP-6(microSv/h),MP-7(microSv/h),Wind Direction,Wind Velocity(m/s),Rain
2024/01/28,00:00,0.147,0.130,0.209,0.198,0.206,0.118,0.076,west,3.8,No
2024/01/28,00:10,0.147,0.130,0.210,0.199,0.205,0.117,0.077,west-northwest,3.4,No
2024/01/28,00:20,0.147,0.130,0.209,0.200,0.205,0.118,0.076,west,3.2,No
2024/01/28,00:30,0.147,0.130,0.209,0.199,0.206,0.118,0.077,west,2.7,No
2024/01/28,00:40,0.147,0.129,0.209,0.198,0.206,0.117,0.076,west-northwest,2.3,No
2024/01/28,00:50,0.149,0.129,0.209,0.199,0.206,0.117,0.076,west-northwest,2.5,No
2024/01/28,01:00,0.148,0.129,0.208,0.199,0.206,0.117,0.076,west,2.5,No
2024/01/28,01:10,0.147,0.131,0.208,0.200,0.207,0.117,0.076,west,2.4,No
2024/01/28,01:20,0.148,0.130,0.208,0.199,0.208,0.117,0.077,west-northwest,3.0,No
2024/01/28,01:30,0.148,0.130,0.209,0.199,0.205,0.117,0.076,west-northwest,3.7,No
2024/01/28,01:40,0.148,0.130,0.209,0.200,0.206,0.117,0.076,west-northwest,3.2,No
2024/01/28,01:50,0.147,0.131,0.208,0.199,0.206,0.117,0.076,west,3.7,No
2024/01/28,02:00,0.147,0.130,0.209,0.199,0.205,0.118,0.076,west,4.7,No
2024/01/28,02:10,0.147,0.130,0.209,0.200,0.206,0.118,0.076,west,3.8,No
2024/01/28,02:20,0.146,0.129,0.210,0.198,0.207,0.118,0.076,west,2.6,No
2024/01/28,02:30,0.147,0.131,0.209,0.199,0.206,0.118,0.077,west,2.5,No
2024/01/28,02:40,0.148,0.130,0.209,0.199,0.205,0.117,0.077,west-northwest,3.1,No
2024/01/28,02:50,0.147,0.130,0.209,0.198,0.206,0.117,0.076,west-northwest,2.6,No
2024/01/28,03:00,0.147,0.130,0.210,0.199,0.207,0.118,0.077,west-northwest,2.4,No
2024/01/28,03:10,0.148,0.129,0.208,0.198,0.206,0.118,0.076,west,2.3,No
2024/01/28,03:20,0.147,0.131,0.209,0.199,0.205,0.118,0.076,west,2.5,No
2024/01/28,03:30,0.147,0.130,0.209,0.199,0.206,0.117,0.076,west,3.6,No
2024/01/28,03:40,0.148,0.129,0.209,0.199,0.207,0.118,0.076,west,2.8,No
2024/01/28,03:50,0.147,0.130,0.209,0.199,0.206,0.118,0.076,west,2.9,No
2024/01/28,04:00,0.148,0.130,0.209,0.198,0.206,0.117,0.077,west-northwest,3.9,No
2024/01/28,04:10,0.148,0.130,0.209,0.198,0.206,0.117,0.076,west,4.9,No
2024/01/28,04:20,0.147,0.130,0.209,0.200,0.205,0.117,0.076,west,5.7,No
2024/01/28,04:30,0.147,0.131,0.209,0.199,0.206,0.118,0.076,west,4.9,No
2024/01/28,04:40,0.147,0.131,0.208,0.200,0.206,0.117,0.076,west,5.3,No
2024/01/28,04:50,0.148,0.130,0.208,0.198,0.205,0.118,0.077,west,4.7,No
2024/01/28,05:00,0.147,0.130,0.208,0.198,0.206,0.117,0.077,west,5.6,No
2024/01/28,05:10,0.149,0.130,0.208,0.199,0.206,0.118,0.076,west,5.8,No
2024/01/28,05:20,0.147,0.130,0.208,0.198,0.206,0.118,0.077,west-northwest,3.4,No
2024/01/28,05:30,0.148,0.130,0.209,0.199,0.206,0.118,0.076,west,4.2,No
2024/01/28,05:40,0.147,0.130,0.210,0.199,0.206,0.117,0.076,west-northwest,4.2,No
2024/01/28,05:50,0.148,0.130,0.209,0.199,0.206,0.117,0.077,west-northwest,3.9,No
2024/01/28,06:00,0.147,0.130,0.209,0.199,0.206,0.118,0.076,west-northwest,4.1,No
2024/01/28,06:10,0.147,0.130,0.209,0.199,0.206,0.118,0.076,west-northwest,4.6,No
2024/01/28,06:20,0.147,0.130,0.208,0.199,0.207,0.117,0.077,west-northwest,5.0,No
2024/01/28,06:30,0.147,0.130,0.209,0.199,0.205,0.118,0.076,west-northwest,4.4,No
2024/01/28,06:40,0.147,0.130,0.209,0.199,0.205,0.118,0.076,west-northwest,2.7,No
2024/01/28,06:50,0.147,0.130,0.209,0.199,0.205,0.118,0.076,west-northwest,3.3,No
2024/01/28,07:00,0.147,0.130,0.209,0.200,0.206,0.118,0.076,west-northwest,2.5,No
2024/01/28,07:10,0.147,0.130,0.209,0.200,0.204,0.118,0.076,west-northwest,3.7,No
2024/01/28,07:20,0.147,0.130,0.209,0.198,0.206,0.117,0.076,west-northwest,3.8,No
2024/01/28,07:30,0.148,0.130,0.209,0.199,0.205,0.117,0.076,west-northwest,4.3,No
2024/01/28,07:40,0.147,0.130,0.208,0.198,0.205,0.118,0.077,west,3.9,No
2024/01/28,07:50,0.146,0.130,0.208,0.199,0.207,0.117,0.076,west,3.3,No
2024/01/28,08:00,0.148,0.131,0.208,0.198,0.205,0.118,0.076,west,4.0,No
2024/01/28,08:10,0.148,0.130,0.208,0.198,0.205,0.118,0.077,west,4.0,No
2024/01/28,08:20,0.147,0.130,0.208,0.198,0.206,0.117,0.077,west,3.1,No
2024/01/28,08:30,0.148,0.130,0.208,0.199,0.205,0.117,0.077,west,2.4,No
2024/01/28,08:40,0.147,0.130,0.209,0.198,0.207,0.118,0.076,west-northwest,1.3,No
2024/01/28,08:50,0.148,0.130,0.209,0.199,0.206,0.117,0.077,west-northwest,1.7,No
2024/01/28,09:00,0.148,0.130,0.208,0.198,0.206,0.117,0.076,west-southwest,0.8,No
2024/01/28,09:10,0.147,0.130,0.209,0.197,0.206,0.117,0.076,west-southwest,1.0,No
2024/01/28,09:20,0.147,0.130,0.207,0.199,0.206,0.117,0.076,northwest,1.8,No
2024/01/28,09:30,0.147,0.130,0.209,0.199,0.206,0.116,0.076,west-northwest,2.3,No
2024/01/28,09:40,0.147,0.130,0.208,0.199,0.206,0.118,0.076,north-northwest,3.4,No
2024/01/28,09:50,0.148,0.129,0.208,0.199,0.206,0.118,0.076,north-northwest,3.5,No
2024/01/28,10:00,0.147,0.130,0.208,0.197,0.207,0.118,0.076,north-northwest,3.7,No
2024/01/28,10:10,0.146,0.130,0.208,0.199,0.206,0.118,0.077,northwest,4.0,No
2024/01/28,10:20,0.147,0.130,0.209,0.199,0.206,0.119,0.076,west-northwest,3.1,No
2024/01/28,10:30,0.149,0.130,0.209,0.199,0.206,0.118,0.076,northwest,3.4,No
2024/01/28,10:40,0.147,0.130,0.209,0.199,0.206,0.118,0.076,north-northwest,2.7,No
2024/01/28,10:50,0.148,0.129,0.208,0.198,0.208,0.118,0.076,west-northwest,1.5,No
2024/01/28,11:00,0.148,0.131,0.210,0.199,0.207,0.117,0.076,north-northwest,3.1,No
2024/01/28,11:10,0.147,0.130,0.208,0.199,0.206,0.118,0.076,north,2.9,No
2024/01/28,11:20,0.147,0.130,0.208,0.198,0.206,0.118,0.076,north-northwest,2.6,No
2024/01/28,11:30,0.147,0.131,0.209,0.198,0.205,0.118,0.076,north,1.5,No
2024/01/28,11:40,0.147,0.130,0.209,0.199,0.206,0.118,0.076,north-northwest,1.8,No
2024/01/28,11:50,0.147,0.131,0.210,0.198,0.207,0.117,0.077,north,3.1,No
2024/01/28,12:00,0.148,0.129,0.209,0.200,0.206,0.119,0.076,north,2.7,No
2024/01/28,12:10,0.148,0.130,0.209,0.200,0.207,0.118,0.076,north-northwest,3.0,No
2024/01/28,12:20,0.148,0.131,0.210,0.199,0.207,0.118,0.077,north,2.3,No
2024/01/28,12:30,0.148,0.130,0.209,0.200,0.206,0.118,0.076,north-northwest,2.6,No
2024/01/28,12:40,0.147,0.130,0.209,0.200,0.208,0.117,0.076,north,2.7,No
2024/01/28,12:50,0.148,0.130,0.209,0.199,0.207,0.117,0.077,north-northwest,2.7,No
2024/01/28,13:00,0.149,0.129,0.209,0.199,0.206,0.118,0.076,north-northwest,3.1,No
2024/01/28,13:10,0.147,0.129,0.209,0.199,0.208,0.118,0.077,north-northwest,3.2,No
2024/01/28,13:20,0.148,0.130,0.209,0.198,0.206,0.118,0.075,north-northwest,3.3,No
2024/01/28,13:30,0.148,0.130,0.209,0.201,0.208,0.118,0.077,north-northwest,3.3,No
2024/01/28,13:40,0.148,0.129,0.209,0.199,0.207,0.118,0.076,north-northwest,4.9,No
2024/01/28,13:50,0.148,0.130,0.210,0.199,0.206,0.118,0.076,north-northwest,5.2,No
2024/01/28,14:00,0.147,0.130,0.210,0.199,0.208,0.119,0.077,northwest,2.4,No
2024/01/28,14:10,0.148,0.130,0.209,0.199,0.207,0.118,0.076,north,3.5,No
2024/01/28,14:20,0.148,0.130,0.208,0.199,0.206,0.117,0.076,north,3.3,No
2024/01/28,14:30,0.148,0.131,0.210,0.200,0.208,0.118,0.077,north,3.4,No
2024/01/28,14:40,0.148,0.131,0.210,0.198,0.206,0.118,0.076,north-northwest,2.9,No
2024/01/28,14:50,0.147,0.130,0.209,0.199,0.207,0.119,0.076,north,3.0,No
2024/01/28,15:00,0.147,0.132,0.209,0.199,0.207,0.118,0.076,north-northwest,1.9,No
2024/01/28,15:10,0.148,0.129,0.210,0.199,0.207,0.118,0.077,northwest,0.8,No
2024/01/28,15:20,0.149,0.130,0.209,0.199,0.207,0.118,0.076,west,2.0,No
2024/01/28,15:30,0.149,0.131,0.209,0.201,0.206,0.118,0.075,northwest,2.2,No
2024/01/28,15:40,0.147,0.131,0.209,0.200,0.207,0.118,0.076,northwest,2.9,No
2024/01/28,15:50,0.148,0.129,0.209,0.199,0.206,0.117,0.076,north-northwest,3.5,No
2024/01/28,16:00,0.148,0.130,0.208,0.200,0.207,0.119,0.076,north-northwest,3.5,No
2024/01/28,16:10,0.148,0.130,0.209,0.199,0.207,0.118,0.076,north-northwest,4.3,No
2024/01/28,16:20,0.147,0.130,0.210,0.199,0.207,0.118,0.076,north,5.1,No
2024/01/28,16:30,0.148,0.131,0.210,0.199,0.207,0.119,0.076,north-northwest,5.5,No
2024/01/28,16:40,0.147,0.131,0.209,0.201,0.206,0.117,0.077,north-northwest,5.1,No
2024/01/28,16:50,0.147,0.131,0.209,0.200,0.207,0.118,0.076,north-northwest,4.1,No
2024/01/28,17:00,0.148,0.131,0.210,0.200,0.208,0.119,0.077,northwest,4.0,No
2024/01/28,17:10,0.148,0.131,0.210,0.200,0.207,0.118,0.076,north-northwest,4.4,No
2024/01/28,17:20,0.147,0.130,0.210,0.200,0.207,0.119,0.076,north-northwest,5.2,No
2024/01/28,17:30,0.148,0.130,0.208,0.199,0.207,0.118,0.076,northwest,5.5,No
2024/01/28,17:40,0.148,0.129,0.209,0.198,0.207,0.118,0.076,northwest,6.3,No
2024/01/28,17:50,0.148,0.130,0.209,0.199,0.206,0.118,0.076,northwest,6.7,No
2024/01/28,18:00,0.148,0.130,0.211,0.200,0.206,0.118,0.076,northwest,5.9,No
2024/01/28,18:10,0.148,0.129,0.208,0.199,0.207,0.118,0.076,northwest,6.4,No
2024/01/28,18:20,0.147,0.131,0.209,0.200,0.207,0.118,0.076,northwest,5.5,No
2024/01/28,18:30,0.147,0.130,0.209,0.199,0.206,0.118,0.076,northwest,5.8,No
2024/01/28,18:40,0.147,0.129,0.209,0.199,0.207,0.117,0.077,northwest,5.4,No
2024/01/28,18:50,0.147,0.130,0.210,0.199,0.206,0.117,0.076,west-northwest,5.5,No
2024/01/28,19:00,0.148,0.131,0.209,0.199,0.205,0.118,0.077,northwest,4.5,No
2024/01/28,19:10,0.148,0.130,0.210,0.199,0.207,0.118,0.076,north-northwest,3.4,No
2024/01/28,19:20,0.147,0.130,0.209,0.200,0.207,0.118,0.076,north-northwest,3.4,No
2024/01/28,19:30,0.147,0.131,0.210,0.200,0.208,0.118,0.076,north-northwest,4.6,No
2024/01/28,19:40,0.148,0.131,0.210,0.199,0.205,0.118,0.075,northwest,4.9,No
2024/01/28,19:50,0.149,0.130,0.209,0.200,0.206,0.117,0.077,northwest,6.8,No
2024/01/28,20:00,0.147,0.130,0.208,0.200,0.206,0.118,0.076,north-northwest,6.3,No
2024/01/28,20:10,0.149,0.130,0.209,0.199,0.206,0.118,0.076,northwest,6.0,No
2024/01/28,20:20,0.148,0.130,0.209,0.198,0.206,0.118,0.076,north-northwest,5.4,No
2024/01/28,20:30,0.148,0.131,0.208,0.200,0.206,0.118,0.076,north-northwest,4.9,No
2024/01/28,20:40,0.147,0.130,0.210,0.199,0.207,0.118,0.076,northwest,5.4,No
2024/01/28,20:50,0.148,0.130,0.210,0.201,0.207,0.117,0.076,north-northwest,5.1,No
2024/01/28,21:00,0.148,0.130,0.210,0.199,0.207,0.117,0.076,north-northwest,5.1,No
2024/01/28,21:10,0.148,0.130,0.209,0.199,0.207,0.117,0.076,north-northwest,4.8,No
2024/01/28,21:20,0.148,0.130,0.210,0.198,0.206,0.117,0.076,north-northwest,4.3,No
2024/01/28,21:30,0.148,0.130,0.210,0.199,0.206,0.117,0.076,north-northwest,4.6,No
2024/01/28,21:40,0.148,0.130,0.209,0.199,0.206,0.117,0.076,north-northwest,4.7,No
2024/01/28,21:50,0.148,0.129,0.210,0.200,0.208,0.118,0.076,north-northwest,4.2,No
2024/01/28,22:00,0.148,0.130,0.209,0.199,0.206,0.117,0.076,north-northwest,3.7,No
2024/01/28,22:10,0.148,0.131,0.210,0.200,0.207,0.117,0.077,north-northwest,3.0,No
2024/01/28,22:20,0.148,0.131,0.210,0.199,0.205,0.117,0.077,north-northwest,2.5,No
2024/01/28,22:30,0.148,0.131,0.210,0.199,0.207,0.117,0.077,northwest,3.5,No
2024/01/28,22:40,0.147,0.131,0.209,0.199,0.206,0.118,0.076,northwest,4.6,No
2024/01/28,22:50,0.148,0.131,0.210,0.200,0.205,0.117,0.077,northwest,4.5,No
2024/01/28,23:00,0.149,0.130,0.209,0.199,0.207,0.118,0.077,north-northwest,3.2,No
2024/01/28,23:10,0.148,0.130,0.209,0.199,0.206,0.117,0.077,northwest,5.2,No
2024/01/28,23:20,0.147,0.130,0.208,0.199,0.206,0.118,0.076,northwest,4.8,No
2024/01/28,23:30,0.147,0.130,0.209,0.199,0.207,0.117,0.077,northwest,5.8,No
2024/01/28,23:40,0.148,0.131,0.210,0.199,0.206,0.117,0.076,northwest,5.6,No
2024/01/28,23:50,0.148,0.131,0.210,0.198,0.206,0.118,0.077,northwest,5.3,No
